Regional Weather Roundup
Issued by NWS

Home | Current Version | Previous Version | Graphics & Text | Print | Product List | Glossary On
Versions: 1 2 3 4 5 6 7 8 9 10 11 12 13 14 15 16 17 18 19 20 21 22 23 24 25 26 27 28 29 30 31 32 33 34 35 36 37 38 39 40 41 42 43 44 45 46 47 48 49 50
000
ASUS43 KLOT 080121
RWRIL

ILLINOIS REGIONAL WEATHER ROUNDUP
NATIONAL WEATHER SERVICE CHICAGO/ROMEOVILLE IL
800 PM CDT TUE JUL 07 2015

NOTE: "FAIR" INDICATES FEW OR NO CLOUDS BELOW 12,000 FEET WITH NO
SIGNIFICANT WEATHER AND/OR OBSTRUCTIONS TO VISIBILITY.

* THESE STATIONS ARE NOT UNDER NWS QUALITY CONTROL. THEY ALSO MAY NOT
  REPORT WEATHER SUCH AS PRECIPITATION OR FOG.

ILZ001-002-007-009-015-016-024-080200-
NORTHWEST ILLINOIS

CITY           SKY/WX    TMP DP  RH WIND       PRES   REMARKS
MOLINE         MOCLDY    70  54  56 N6        30.05S
STERLING*      CLOUDY    66  55  68 NE7       30.06S
SAVANNA*       CLOUDY    67  52  57 N8        30.07R
$$

ILZ003-004-008-010-011-017-018-080200-
NORTH CENTRAL ILLINOIS

CITY           SKY/WX    TMP DP  RH WIND       PRES   REMARKS
ROCKFORD       MOCLDY    67  51  56 NE9       30.08R
FREEPORT*      PTCLDY    63  53  70 CALM      30.09S
ROCHELLE*      CLOUDY    65  55  69 NE5       30.07S
DE KALB*       PTCLDY    59  51  74 E6        30.08S
PERU*          PTCLDY    67  53  59 NE8       30.06R
$$

ILZ005-006-012>014-019>023-080200-
NORTHEAST ILLINOIS

CITY           SKY/WX    TMP DP  RH WIND       PRES   REMARKS
CHICAGO-OHARE  PTCLDY    61  46  57 NE13      30.08R
CHICAGO-MIDWAY PTCLDY    63  46  54 N12       30.07S
AURORA         PTCLDY    63  50  62 E7        30.07S
LANSING*       CLEAR     60  46  59 NE13      30.07S
JOLIET*        CLEAR     63  51  65 NE7       30.07S
WAUKEGAN       CLEAR     57  48  72 N6        30.09R
DUPAGE AIRPORT CLEAR     61  48  62 NE10      30.07S
KANKAKEE*      MOCLDY    61  51  69 N9        30.07S
WHEELING       CLEAR     59  45  59 NE9       30.10R
MORRIS*        CLEAR     63  50  62 E8        30.05R
ROMEOVILLE*    CLEAR     61  48  63 NE8       30.07S
NORTHERLY ISL    N/A     59  48  67 N12         N/A
$$

LMZ740>746-080200-
SOUTHERN LAKE MICHIGAN

STATION/POSITION SKY/WX   TEMP    WIND        PRES    VSBY  WAVE
                          AIR SEA DIR/SP/G                  HT/PER
                          (F)     (DEG/KT/KT) (MB)    (MI)  (FT/S)
HARRISON CRIB              58     360/ 14/ 16   N/A
BURNHAM HARBOR             58     360/ 10/ 13   N/A
CALUMET HARBOR             61     360/  9/ 14   N/A
BURNS HARBOR               62      30/ 20/ 25 1017.9S
MICHIGAN CITY              62     350/ 26/ 31   N/A
MICHIGAN CITY 6N           62 65   20/ 17/ 23   N/A           8/ 7
ST. JOSEPH                 61 62   40/ 21/ 25   N/A           8/ 2
$$

ILZ025>027-034>036-040-047-049-050-058-095>099-080200-
WEST-CENTRAL ILLINOIS

CITY           SKY/WX    TMP DP  RH WIND       PRES   REMARKS
QUINCY         MOCLDY    70  61  73 E5        30.04R HAZE
GALESBURG*     MOCLDY    66  58  75 NE6       30.05S
MACOMB*        CLOUDY    68  62  80 CALM      30.07R HAZE
JACKSONVILLE*  MOCLDY    70  63  80 NE3       30.04R
PITTSFIELD*    MOCLDY    69  62  78 NE3       30.05R
$$

ILZ028>032-037-038-041>044-048-051>054-059>061-080200-
CENTRAL ILLINOIS

CITY           SKY/WX    TMP DP  RH WIND       PRES   REMARKS
PONTIAC        MOCLDY    66  58  77 E7        30.06R
BLOOMINGTON    MOCLDY    65  58  78 E7        30.06R
DECATUR        CLOUDY    66  55  67 E10       30.04R
PEORIA         MOCLDY    70  59  68 NE5       30.04R HAZE
LACON*         MOCLDY    66  57  72 CALM      30.04R
LINCOLN*       PTCLDY    67  60  77 CALM      30.05R
SPRINGFIELD    MOCLDY    70  61  73 NE5       30.04R
TAYLORVILLE    CLOUDY    66  59  77 NE7       30.04R
$$

ILZ033-039-045-046-055>057-062-063-080200-
EAST-CENTRAL ILLINOIS

CITY           SKY/WX    TMP DP  RH WIND       PRES   REMARKS
CHAMPAIGN      PTCLDY    64  53  67 NE8       30.05R
DANVILLE*      LGT RAIN  61  52  72 N8        30.02R
RANTOUL*       MOCLDY    65  54  66 NE8       30.06R
MATTOON        MOCLDY    65  56  72 NE7       30.03R
PARIS*         CLOUDY    65  55  68 N8        30.04R
$$

ILZ079-100>102-080200-
SOUTHWEST ILLINOIS

CITY           SKY/WX    TMP DP  RH WIND       PRES   REMARKS
ALTON          CLOUDY    66 N/A N/A NE6       30.03R
BELLEVILLE     MOCLDY    66  66 100 NE6       30.02R
CAHOKIA*       CLOUDY    67  63  87 NE8       30.03R
SPARTA*        CLOUDY    68  65  91 NE6       30.03R
$$

ILZ064>066-069>071-074>076-080>082-084>086-088>090-092>094-080200-
SOUTH-CENTRAL ILLINOIS

CITY           SKY/WX    TMP DP  RH WIND       PRES   REMARKS
CARBONDALE     CLOUDY    73  70  90 N5        30.00R FOG
CAIRO*         RAIN      73  72  94 SW10      30.01R
EFFINGHAM*     RAIN      65  58  78 N3        30.04R
MARION         RAIN      75  73  94 N5        30.00R
MT. VERNON     CLOUDY    66  61  82 NE7       30.02R
CENTRALIA*     CLOUDY    66  60  81 NE5       30.02R
SALEM*         MOCLDY    67  62  82 NE8       30.03R
$$

ILZ067-068-072-073-078-083-087-091-080200-
SOUTHEAST ILLINOIS

CITY           SKY/WX    TMP DP  RH WIND       PRES   REMARKS
LAWRENCEVILLE  CLOUDY    67  66  97 N8        30.01R
FLORA*         CLOUDY    66  61  83 N7        30.02R
FAIRFIELD*     CLOUDY    67  65  93 N7        30.00R FOG
HARRISBURG*    LGT RAIN  73  72  96 N9        30.00R
ROBINSON*      CLOUDY    65  63  92 CALM      30.02S
CARMI*         CLOUDY    70  64  83 N8        29.99R
$$

ABBREVIATIONS USED IN REMARKS
   TC - TEMPERATURE IN CELSIUS
  WCI - WIND CHILL INDEX
   HX - HEAT INDEX
  VSB - VISIBILITY
$$




USA.gov is the U.S. government's official web portal to all federal, state and local government web resources and services.